| time (UTC) | temp F | wind direction | speed MPH | gust MPH | rain 1hr in | rain 24hr in | rain mn in | humidity % | barometer mb |
| 20260902201534 | 96 | 304 | 0.0 | 4.0 | 0.00 | 0.00 | 0.00 | 54 | 1014.0 |
| 20260902200028 | 97 | 198 | 2.0 | 5.0 | 0.00 | 0.00 | 0.00 | 50 | 1014.2 |
| 20260902194533 | 95 | 193 | 1.0 | 7.0 | 0.00 | 0.00 | 0.00 | 53 | 1014.2 |
| 20260902193021 | 94 | 325 | 1.0 | 6.0 | 0.00 | 0.00 | 0.00 | 54 | 1014.3 |
| 20260902191534 | 94 | 355 | 1.0 | 4.0 | 0.00 | 0.00 | 0.00 | 51 | 1014.5 |
| 20260902190035 | 94 | 201 | 0.0 | 4.0 | 0.00 | 0.00 | 0.00 | 58 | 1014.6 |
| 20260902184537 | 95 | 269 | 0.0 | 4.0 | 0.00 | 0.00 | 0.00 | 54 | 1014.6 |
| 20260902183030 | 95 | 225 | 1.0 | 4.0 | 0.00 | 0.00 | 0.00 | 54 | 1014.7 |
| 20260902181526 | 94 | 299 | 1.0 | 5.0 | 0.00 | 0.00 | 0.00 | 56 | 1014.8 |
| 20260902180018 | 93 | 236 | 1.0 | 5.0 | 0.00 | 0.00 | 0.00 | 55 | 1015.0 |
| 20260902174544 | 92 | 173 | 2.0 | 7.0 | 0.00 | 0.00 | 0.00 | 57 | 1015.0 |
| 20260902173035 | 91 | 299 | 0.0 | 3.0 | 0.00 | 0.00 | 0.00 | 60 | 1014.9 |
| 20260902171506 | 90 | 217 | 0.0 | 3.0 | 0.00 | 0.00 | 0.00 | 62 | 1015.0 |
| 20260902170004 | 89 | 294 | 1.0 | 4.0 | 0.00 | 0.00 | 0.00 | 63 | 1015.2 |
| 20260902164526 | 88 | 208 | 0.0 | 3.0 | 0.00 | 0.00 | 0.00 | 66 | 1015.3 |
| 20260902163018 | 87 | 230 | 0.0 | 3.0 | 0.00 | 0.00 | 0.00 | 66 | 1015.4 |
| 20260902161526 | 86 | 198 | 0.0 | 4.0 | 0.00 | 0.00 | 0.00 | 67 | 1015.5 |
| 20260902160011 | 86 | 229 | 1.0 | 5.0 | 0.00 | 0.00 | 0.00 | 69 | 1015.7 |
| 20260902154514 | 85 | 229 | 1.0 | 4.0 | 0.00 | 0.00 | 0.00 | 71 | 1015.8 |
| 20260902153014 | 84 | 263 | 0.0 | 4.0 | 0.00 | 0.00 | 0.00 | 72 | 1015.8 |
| 20260902151523 | 84 | 176 | 0.0 | 5.0 | 0.00 | 0.00 | 0.00 | 73 | 1015.8 |
| 20260902150023 | 83 | 283 | 1.0 | 4.0 | 0.00 | 0.00 | 0.00 | 73 | 1015.5 |
| 20260902144525 | 82 | 305 | 0.0 | 2.0 | 0.00 | 0.00 | 0.00 | 75 | 1015.5 |
| 20260902143015 | 81 | 235 | 0.0 | 2.0 | 0.00 | 0.00 | 0.00 | 77 | 1015.6 |
| 20260902141515 | 80 | 276 | 0.0 | 2.0 | 0.00 | 0.00 | 0.00 | 79 | 1015.6 |
| 20260902140009 | 79 | 218 | 0.0 | 2.0 | 0.00 | 0.00 | 0.00 | 81 | 1015.6 |
| 20260902134530 | 78 | 227 | 0.0 | 2.0 | 0.00 | 0.00 | 0.00 | 85 | 1015.6 |
| 20260902133040 | 76 | 263 | 0.0 | 2.0 | 0.00 | 0.00 | 0.00 | 88 | 1015.7 |
| 20260902131526 | 75 | 193 | 0.0 | 2.0 | 0.00 | 0.00 | 0.00 | 90 | 1015.8 |
| 20260902130025 | 74 | 205 | 1.0 | 3.0 | 0.00 | 0.00 | 0.00 | 92 | 1016.0 |
| 20260902124511 | 73 | 229 | 0.0 | 0.0 | 0.00 | 0.00 | 0.00 | 93 | 1015.8 |
| 20260902123028 | 73 | 229 | 0.0 | 2.0 | 0.00 | 0.00 | 0.00 | 94 | 1015.8 |
| 20260902121526 | 72 | 229 | 0.0 | 0.0 | 0.00 | 0.00 | 0.00 | 94 | 1015.7 |
| 20260902120028 | 72 | 229 | 0.0 | 0.0 | 0.00 | 0.00 | 0.00 | 93 | 1015.7 |
| 20260902114533 | 72 | 229 | 0.0 | 0.0 | 0.00 | 0.00 | 0.00 | 93 | 1015.6 |
| 20260902113022 | 72 | 229 | 0.0 | 0.0 | 0.00 | 0.00 | 0.00 | 93 | 1015.5 |
| 20260902111518 | 72 | 229 | 0.0 | 1.0 | 0.00 | 0.00 | 0.00 | 93 | 1015.6 |
| 20260902110030 | 72 | 229 | 0.0 | 0.0 | 0.00 | 0.00 | 0.00 | 93 | 1015.8 |
| 20260902104537 | 72 | 229 | 0.0 | 0.0 | 0.00 | 0.00 | 0.00 | 93 | 1015.8 |
| 20260902103031 | 72 | 229 | 0.0 | 0.0 | 0.00 | 0.00 | 0.00 | 93 | 1015.6 |
| 20260902101535 | 72 | 229 | 0.0 | 0.0 | 0.00 | 0.00 | 0.00 | 93 | 1015.6 |
| 20260902100025 | 72 | 229 | 0.0 | 0.0 | 0.00 | 0.00 | 0.00 | 93 | 1015.6 |
| 20260902094521 | 72 | 229 | 0.0 | 0.0 | 0.00 | 0.00 | 0.00 | 93 | 1015.5 |
| 20260902093030 | 73 | 229 | 0.0 | 0.0 | 0.00 | 0.00 | 0.00 | 93 | 1015.5 |
| 20260902091537 | 73 | 229 | 0.0 | 0.0 | 0.00 | 0.00 | 0.00 | 93 | 1015.3 |
| 20260902090034 | 73 | 229 | 0.0 | 0.0 | 0.00 | 0.00 | 0.00 | 92 | 1015.3 |
| 20260902084529 | 73 | 229 | 0.0 | 0.0 | 0.00 | 0.00 | 0.00 | 92 | 1015.3 |
| 20260902083034 | 73 | 229 | 0.0 | 0.0 | 0.00 | 0.00 | 0.00 | 92 | 1015.3 |
| 20260902081528 | 73 | 229 | 0.0 | 0.0 | 0.00 | 0.00 | 0.00 | 92 | 1015.2 |
| 20260902080034 | 74 | 229 | 0.0 | 0.0 | 0.00 | 0.00 | 0.00 | 92 | 1015.2 |
| 20260902074531 | 74 | 229 | 0.0 | 0.0 | 0.00 | 0.00 | 0.00 | 92 | 1015.2 |
| 20260902073034 | 74 | 229 | 0.0 | 0.0 | 0.00 | 0.00 | 0.00 | 91 | 1015.2 |
| 20260902071530 | 74 | 229 | 0.0 | 0.0 | 0.00 | 0.00 | 0.00 | 91 | 1015.0 |
| 20260902070030 | 75 | 229 | 0.0 | 0.0 | 0.00 | 0.00 | 0.00 | 91 | 1015.1 |
| 20260902064527 | 75 | 229 | 0.0 | 0.0 | 0.00 | 0.00 | 0.00 | 90 | 1015.2 |
| 20260902063037 | 75 | 229 | 0.0 | 0.0 | 0.00 | 0.00 | 0.00 | 90 | 1015.3 |
| 20260902061543 | 75 | 229 | 0.0 | 0.0 | 0.00 | 0.00 | 0.00 | 89 | 1015.2 |
| 20260902060033 | 75 | 229 | 0.0 | 0.0 | 0.00 | 0.00 | 0.00 | 89 | 1015.1 |
| 20260902054537 | 76 | 229 | 0.0 | 0.0 | 0.00 | 0.00 | 0.00 | 88 | 1015.1 |
| 20260902053027 | 76 | 229 | 0.0 | 0.0 | 0.00 | 0.00 | 0.00 | 88 | 1015.2 |
| 20260902051527 | 77 | 229 | 0.0 | 0.0 | 0.00 | 0.00 | 0.00 | 87 | 1015.2 |
| 20260902050025 | 77 | 229 | 0.0 | 0.0 | 0.00 | 0.00 | 0.00 | 87 | 1015.3 |
| 20260902044526 | 78 | 229 | 0.0 | 0.0 | 0.00 | 0.00 | 0.00 | 86 | 1015.3 |
| 20260902043014 | 78 | 229 | 0.0 | 0.0 | 0.00 | 0.00 | 0.00 | 85 | 1015.2 |
| 20260902041531 | 79 | 229 | 0.0 | 0.0 | 0.00 | 0.00 | 0.00 | 84 | 1015.3 |
| 20260902040034 | 79 | 229 | 0.0 | 0.0 | 0.00 | 0.00 | 0.00 | 83 | 1015.3 |
| 20260902034531 | 80 | 229 | 0.0 | 1.0 | 0.00 | 0.00 | 0.00 | 82 | 1015.4 |
| 20260902033027 | 80 | 229 | 0.0 | 0.0 | 0.00 | 0.00 | 0.00 | 82 | 1015.5 |
| 20260902031535 | 81 | 292 | 0.0 | 1.0 | 0.00 | 0.00 | 0.00 | 81 | 1015.6 |
| 20260902030020 | 81 | 249 | 0.0 | 0.0 | 0.00 | 0.00 | 0.00 | 80 | 1015.6 |
| 20260902024514 | 82 | 249 | 0.0 | 0.0 | 0.00 | 0.00 | 0.00 | 78 | 1015.4 |
| 20260902023036 | 83 | 249 | 0.0 | 1.0 | 0.00 | 0.00 | 0.00 | 77 | 1015.3 |
| 20260902021508 | 83 | 249 | 0.0 | 0.0 | 0.00 | 0.00 | 0.00 | 76 | 1015.4 |
| 20260902020029 | 84 | 249 | 0.0 | 2.0 | 0.00 | 0.00 | 0.00 | 74 | 1015.2 |
| 20260902014528 | 85 | 246 | 0.0 | 2.0 | 0.00 | 0.00 | 0.00 | 72 | 1015.1 |
| 20260902013020 | 85 | 300 | 0.0 | 1.0 | 0.00 | 0.00 | 0.00 | 72 | 1015.0 |
| 20260902011515 | 85 | 240 | 0.0 | 3.0 | 0.00 | 0.00 | 0.00 | 71 | 1014.8 |
| 20260902010013 | 86 | 219 | 0.0 | 2.0 | 0.00 | 0.00 | 0.00 | 72 | 1014.6 |
| 20260902004510 | 87 | 253 | 0.0 | 3.0 | 0.00 | 0.00 | 0.00 | 71 | 1014.5 |
| 20260902003032 | 87 | 243 | 0.0 | 2.0 | 0.00 | 0.00 | 0.00 | 71 | 1014.3 |
| 20260902001529 | 88 | 200 | 0.0 | 3.0 | 0.00 | 0.00 | 0.00 | 69 | 1014.5 |
| 20260902000023 | 89 | 206 | 0.0 | 3.0 | 0.00 | 0.00 | 0.00 | 68 | 1014.5 |
| 20260901234518 | 90 | 191 | 1.0 | 3.0 | 0.00 | 0.00 | 0.00 | 68 | 1014.7 |
| 20260901233014 | 90 | 207 | 1.0 | 4.0 | 0.00 | 0.00 | 0.00 | 67 | 1014.7 |
| 20260901231512 | 90 | 222 | 1.0 | 3.0 | 0.00 | 0.00 | 0.00 | 66 | 1014.7 |
| 20260901230033 | 91 | 242 | 0.0 | 3.0 | 0.00 | 0.00 | 0.00 | 68 | 1014.7 |
| 20260901224529 | 91 | 219 | 0.0 | 3.0 | 0.00 | 0.00 | 0.00 | 69 | 1014.7 |
| 20260901223027 | 92 | 241 | 0.0 | 3.0 | 0.00 | 0.01 | 0.00 | 71 | 1014.8 |
| 20260901221555 | 92 | 234 | 0.0 | 3.0 | 0.00 | 0.10 | 0.00 | 69 | 1014.8 |
| 20260901220027 | 93 | 234 | 0.0 | 3.0 | 0.00 | 0.10 | 0.00 | 68 | 1014.8 |
| 20260901214511 | 93 | 202 | 0.0 | 5.0 | 0.00 | 0.10 | 0.00 | 67 | 1014.7 |
| 20260901213032 | 93 | 198 | 0.0 | 3.0 | 0.00 | 0.10 | 0.00 | 64 | 1014.6 |
| 20260901211533 | 94 | 272 | 0.0 | 4.0 | 0.00 | 0.10 | 0.00 | 62 | 1014.7 |
| 20260901210031 | 94 | 194 | 0.0 | 2.0 | 0.00 | 0.10 | 0.00 | 67 | 1014.7 |
| 20260901204525 | 94 | 240 | 0.0 | 3.0 | 0.00 | 0.10 | 0.00 | 61 | 1014.8 |
| 20260901203032 | 95 | 229 | 0.0 | 3.0 | 0.00 | 0.10 | 0.00 | 62 | 1014.9 |